星链-5451 (STARLINK-5451 )

导读

STARLINK-5451是美国SpaceX公司星链(Starlink)星座的卫星,于2022年12月17日发射升空,属于星链第二代V1.5批次卫星。它运行在近地轨道,配备激光星间链路,可实现卫星间直接通信,降低对地面基站依赖,提升网络覆盖与带宽性能,为全球提供高速宽带互联网服务,是全球规模最大卫星星座的组成部分。

Basic Information
目录编号:
54771
目录名称:
STARLINK-5451
国际标识:
2022-175P
轨道中心:
EARTH
卫星名称:
星链-5451
卫星全名:
星链-5451 (STARLINK-5451 )
卫星状态:
在轨 (已飞行1367 天)
发射日期:
2022-12-17 UTC
国别 :
美国 (US)
星等 :
--
This satellite is enrolled in the Space Conjunction Data Service (SCDS) and the current flight risk assessment level is: No High Risk
Orbit Information
数据来源 国际轨道数据 AOE轨道数据
星历时间 2026-09-13T14:40:39+0800
1天前
查看轨道信息
2026-09-11T07:00:00+0800
3天前
查看轨道信息
半长轴 6864.379km 6864.368km
偏心率 0.0001544 0.0001528
轨道倾角 53.159° 53.160°
近地点辐角 74.220° 66.459°
升交点赤经 267.651° 278.368°
平近点角 285.897° 137.663°
近地点 485.182km 485.182km
远地点 487.302km 487.28km
周期 94.333分钟 94.332分钟
每日圈数 15.265146 15.265181
Detailed Information
固有亮度:
5
最大亮度:
2.5
卫星平台:
Starlink v1.5
覆盖范围:
全球
运营商:
太空探索技术公司
运营商所在国:
美国
制造商(研发单位):
太空探索技术公司
制造商所在国:
美国
使用方式:
暂无
Satellite Introduction
星链(Starlink)计划是由太空探索技术公司(SpaceX)提出的一个巨型低轨卫星互联网星座项目,计划在2019年至2024年间在太空搭建由约1.2万颗卫星组成的“星链”网络,其中1584颗将部署在地球上空550千米处的近地轨道,并从2020年开始工作。该卫星仍在工作。
2D Orbit Map
3D Orbit Map
Orbit Altitude Analysis Chart
Orbit Inclination Analysis Chart
Orbit Comprehensive Analysis Chart
View Comprehensive Chart
Conjunction Data List
Event ID Objects TCA Miss Dist (km) Collision Risk Probability Collision Risk Index (CRI) Action
CDM_260914-214005-477105-913625
2026-09-14T
21:40:54+0000
1.804 km
极远距离
3.631316E-6 低风险 0.46
CDM_260915-144805-477105-619323
HAWK-7B (56193)
2026-09-15T
14:48:39+0000
1.887 km
极远距离
3.040201E-6 低风险 0.45
CDM_260914-175004-562505-477127
2026-09-14T
17:50:33+0000
2.169 km
极远距离
2.317498E-6 低风险 0.42
CDM_260915-083105-477105-619123
HAWK-7A (56191)
2026-09-15T
08:31:34+0000
2.198 km
极远距离
2.08023E-6 低风险 0.41
CDM_260915-065705-477105-620023
HAWK-7C (56200)
2026-09-15T
06:57:03+0000
2.523 km
极远距离
1.588429E-6 低风险 0.39
CDM_260915-025305-477106-162321
2026-09-15T
02:53:19+0000
2.667 km
极远距离
1.114595E-6 低风险 0.36
CDM_260915-073805-477105-820622
2026-09-15T
07:38:29+0000
2.319 km
极远距离
1.109863E-6 低风险 0.36
CDM_260914-203705-477106-383021
2026-09-14T
20:37:24+0000
2.670 km
极远距离
1.02815E-6 低风险 0.35
CDM_260916-071205-477105-873721
2026-09-16T
07:12:11+0000
2.983 km
极远距离
5.91261E-7 极低风险 0.3
CDM_260916-150305-477105-655321
2026-09-16T
15:03:12+0000
2.909 km
极远距离
5.802109E-7 极低风险 0.3
Miss Distance Evolution Trend with All Objects Subscribe to Flight Safety Assessment
Collision Probability Evolution Trend with All Objects Subscribe to Flight Safety Assessment